Theta_e
306 307 307 307 306 306 306 307 307 308 308 308 309 309 309 308 307 307 306 307 311 312 312 312 315 316 313 313 318 320 320 319 318 318 316 315 316 317 319 320 323 323 323 327 348
306 306 306 306 306 306 302 299 300 304 307 308 308 308 308 307 308 309 307 308 308 309 315 317 317 316 310 311 313 320 321 321 319 318 317 317 318 319 321 320 320 321 322 343 350
305 306 305 305 305 305 306 306 307 307 307 307 307 307 307 307 308 311 316 314 314 311 313 316 318 314 313 312 313 318 322 322 321 320 320 320 320 320 320 317 318 319 320 323 340
305 305 305 304 304 304 304 304 305 307 307 307 307 307 306 307 305 321 316 315 314 314 315 313 314 314 313 315 314 313 317 320 320 321 321 319 319 320 319 319 318 318 319 319 323
302 302 300 298 298 298 298 298 299 306 306 306 307 307 307 308 309 309 311 315 316 317 314 313 312 314 314 312 314 317 315 316 317 318 319 320 321 320 319 319 319 318 319 318 317
304 304 304 304 303 303 301 298 299 299 304 307 307 307 307 307 305 308 310 309 318 315 315 313 313 313 314 314 314 316 318 319 318 318 320 321 321 319 320 320 321 319 320 321 333
303 303 302 304 305 305 305 305 304 304 306 308 309 309 307 307 307 307 307 308 316 319 319 317 316 316 316 316 318 319 318 318 319 321 320 320 321 321 319 319 319 319 317 319 324
303 302 301 304 303 303 304 304 306 308 308 309 310 308 308 306 306 307 308 308 310 312 317 317 317 317 318 320 323 321 317 317 318 318 320 319 322 322 320 319 319 319 318 319 318
301 298 300 300 300 302 303 307 309 309 309 307 310 308 310 310 311 311 310 308 309 310 311 314 312 312 316 323 323 320 321 317 317 318 320 319 320 320 320 320 319 318 318 318 316
299 299 300 300 302 303 305 307 305 311 310 311 312 310 310 312 310 308 307 307 311 309 310 310 309 311 314 319 326 323 320 318 318 318 319 319 320 320 321 321 320 319 318 318 317
299 300 300 301 304 306 306 306 303 305 305 306 306 310 308 308 307 308 308 308 308 307 312 310 310 310 312 317 320 320 320 318 317 318 318 319 319 320 320 320 319 319 319 318 319
299 300 300 302 305 306 306 305 304 307 307 307 309 309 308 308 310 312 312 308 307 307 310 310 312 311 311 311 313 317 321 321 319 318 318 318 318 320 320 321 320 319 319 319 319
300 300 301 302 304 306 306 306 307 308 307 309 311 311 310 312 311 311 312 313 311 307 307 307 309 313 313 312 312 312 318 320 319 319 319 319 319 319 320 321 321 321 320 320 320
300 301 302 302 305 306 306 308 307 308 310 310 310 310 311 313 313 313 312 313 314 306 306 307 308 314 315 316 313 312 313 316 318 319 319 318 320 319 320 322 322 321 318 320 320
300 301 302 303 305 307 306 309 310 309 314 310 310 310 310 313 315 316 314 313 315 314 315 315 314 314 315 316 315 318 315 314 316 316 317 319 318 319 320 321 322 321 320 319 320
301 302 304 305 306 306 308 309 310 312 313 310 309 310 310 312 313 315 314 314 315 315 316 317 315 314 314 315 315 317 316 316 316 317 318 317 319 319 319 321 322 321 320 320 319
302 304 305 306 307 307 308 308 312 310 310 310 309 310 311 311 311 314 315 316 318 319 319 318 318 315 314 314 315 316 316 323 322 321 320 315 317 318 319 321 322 321 321 320 319
303 306 307 309 307 307 308 310 312 310 309 309 310 310 312 310 312 313 314 318 313 315 318 323 322 319 317 315 317 317 315 322 328 321 318 315 317 317 318 319 321 322 320 320 319
304 308 309 307 307 307 310 312 310 311 309 310 311 311 311 311 311 313 313 318 318 317 319 319 320 316 316 317 317 321 319 316 320 321 323 318 317 320 318 319 320 320 321 322 319
304 308 310 307 307 308 312 313 310 310 310 311 312 311 312 312 313 314 314 315 316 313 313 317 319 317 320 317 318 320 317 319 321 326 325 326 325 319 320 319 320 321 319 320 320
307 311 308 307 308 310 316 311 309 309 311 312 312 311 312 313 312 312 313 312 314 313 313 316 318 317 315 320 322 322 320 319 320 322 327 326 324 320 320 321 319 320 319 321 328
307 312 308 307 309 307 308 309 310 312 311 310 311 312 313 312 313 314 314 314 312 314 315 315 315 317 317 317 318 319 321 321 323 320 321 325 321 322 322 323 320 324 326 333 343
307 310 308 307 308 308 308 309 310 313 311 312 312 312 312 315 314 313 311 311 311 312 314 313 314 314 315 322 322 322 322 322 322 323 322 324 320 320 322 322 330 338 342 342 340
308 307 306 305 305 306 308 310 312 310 310 310 312 312 312 310 310 312 311 312 311 311 313 314 314 314 315 316 319 322 323 323 323 323 322 324 325 322 323 326 341 342 340 340 340
306 307 305 305 305 305 306 309 309 310 310 311 313 312 313 312 313 312 311 312 310 311 311 314 318 316 317 319 320 320 324 323 323 322 325 323 324 327 328 324 340 342 342 341 340
304 305 305 304 305 306 306 308 309 309 310 312 312 311 312 312 312 313 313 313 313 310 310 312 317 314 316 317 318 322 323 323 325 324 324 326 327 326 325 322 333 339 340 339 337
302 304 304 304 305 306 306 307 308 308 310 310 310 311 312 313 311 311 311 311 312 312 311 311 312 316 317 318 319 321 322 322 323 323 323 326 326 325 323 319 323 338 335 333 331
Wind_Speed
26 27 28 29 30 29 27 26 26 26 26 25 24 24 26 30 34 28 15 25 13 12 20 17 14 16 17 6 9 6 5 13 20 19 15 12 6 9 7 14 3 2 4 1 35
25 26 26 27 28 28 29 30 30 29 27 26 26 26 26 29 33 27 34 22 23 25 17 15 9 13 6 9 5 8 12 22 16 11 11 13 12 15 2 3 2 4 6 18 34
27 27 28 29 29 29 29 28 27 27 28 28 27 25 24 24 9 7 2 5 13 28 25 18 16 11 12 8 9 5 23 15 9 19 21 21 21 13 11 4 6 8 5 8 6
30 30 31 31 32 32 33 33 32 29 26 25 24 21 19 14 6 2 3 7 9 14 22 18 10 6 5 15 15 14 20 19 15 17 16 11 8 12 8 8 12 12 7 8 8
31 33 35 35 37 36 35 35 34 31 28 26 21 17 10 4 13 23 23 18 4 17 22 15 12 10 10 6 14 25 13 13 20 23 26 20 18 15 18 10 3 9 7 9 8
30 30 32 34 38 39 38 37 38 35 31 23 18 12 7 14 16 16 14 26 15 15 17 15 8 15 7 15 19 8 14 21 21 22 24 24 15 10 21 8 4 5 5 1 9
33 34 36 37 37 37 39 41 39 31 27 22 15 10 12 25 11 28 34 28 18 18 13 21 21 14 7 12 16 16 20 19 23 25 22 11 21 29 10 8 8 7 8 7 6
38 39 43 40 38 36 37 35 36 33 25 17 9 6 9 27 28 29 25 25 21 17 26 24 21 17 17 10 18 9 10 19 26 21 15 12 30 22 11 8 10 9 8 8 10
40 46 47 42 37 36 35 34 31 28 6 3 3 6 10 23 7 12 9 11 24 25 27 16 9 8 12 16 11 9 19 22 17 12 16 18 32 12 10 15 11 9 10 10 10
43 47 44 36 36 34 31 28 31 7 5 2 2 3 7 12 30 34 36 26 12 10 11 9 5 6 6 9 20 21 22 16 17 13 12 17 24 17 15 17 17 15 11 11 11
46 47 38 35 32 30 31 15 12 4 15 8 15 15 22 33 32 25 30 16 9 12 12 9 9 16 23 19 20 17 13 15 18 16 10 16 26 22 15 15 12 18 17 15 17
48 45 33 33 25 24 13 11 12 5 10 18 16 15 25 18 12 13 21 14 6 13 11 7 14 21 19 16 20 22 21 22 18 14 17 23 24 16 15 21 18 11 21 18 19
50 44 33 31 24 19 25 21 18 14 3 11 11 5 12 15 17 15 10 10 13 12 15 15 19 18 18 20 22 24 23 23 23 20 21 17 17 25 13 19 20 18 12 21 22
50 37 29 35 12 30 15 22 14 12 2 6 14 8 14 17 5 13 15 5 13 12 15 15 18 14 18 20 20 23 19 20 20 20 19 18 13 16 22 17 20 21 11 22 21
49 29 28 25 21 9 24 25 17 3 5 17 12 18 21 8 10 19 12 7 13 10 5 8 12 17 20 20 18 20 20 23 22 18 16 29 7 12 15 21 19 20 16 12 19
49 27 28 22 18 17 26 31 19 3 5 11 16 22 21 16 16 6 15 2 7 3 8 17 17 6 14 21 16 16 12 19 17 12 18 22 16 14 16 20 19 21 17 12 9
44 28 21 19 7 27 30 11 3 5 15 14 27 25 20 20 20 17 13 13 4 6 3 10 18 13 16 16 14 11 10 1 6 13 12 20 17 16 14 17 22 24 17 11 11
40 26 16 20 16 26 29 3 4 12 12 16 19 18 12 22 17 20 17 1 4 4 3 4 6 3 9 10 11 11 13 6 6 11 15 19 16 12 25 24 7 16 13 11 14
39 22 14 7 14 22 5 4 4 13 16 16 16 12 12 18 14 14 16 2 4 6 13 4 4 11 14 9 3 4 19 15 13 15 6 12 14 9 21 23 20 11 16 18 10
33 10 10 9 14 14 2 2 6 16 15 15 12 11 20 16 13 16 9 10 17 16 16 5 9 4 1 6 13 15 8 9 4 5 10 7 6 15 15 22 20 16 11 13 14
11 4 5 21 19 1 1 3 14 15 12 13 17 16 11 11 14 17 10 18 14 22 9 8 2 5 8 6 4 4 6 8 4 5 4 4 11 11 10 16 20 17 12 18 15
10 4 19 18 4 4 5 13 18 21 10 10 8 10 9 18 15 14 9 10 17 14 9 4 4 6 12 16 11 6 10 7 5 6 6 5 10 7 10 18 11 12 10 20 25
6 4 11 20 4 4 10 15 18 19 15 15 9 10 16 9 8 10 14 14 20 13 5 3 4 5 7 3 4 3 10 8 9 4 9 8 6 5 11 23 17 15 24 24 28
4 4 4 4 8 9 12 15 15 14 17 18 15 9 8 14 12 11 19 9 19 17 21 7 5 10 8 10 7 7 13 11 12 5 7 10 8 12 14 19 9 22 23 26 29
3 3 4 5 8 16 17 14 19 19 12 13 4 6 17 9 18 6 15 19 14 9 4 3 5 9 16 19 20 20 18 12 8 12 7 7 7 5 7 10 11 20 23 24 27
4 3 3 10 12 14 14 15 15 23 22 10 11 22 18 12 14 23 19 15 6 5 7 6 4 13 17 19 18 16 11 16 11 16 23 9 3 8 0 9 6 18 27 22 25
7 6 2 6 9 11 9 20 21 21 9 18 18 21 17 13 22 25 22 20 13 6 3 2 3 4 6 12 17 9 15 14 12 5 7 4 6 5 9 2 27 20 25 27 26
Wind_Direction
351 348 344 341 339 335 331 328 326 324 324 322 322 321 320 319 316 308 252 243 231 231 238 258 275 242 207 233 249 248 235 240 239 239 240 287 280 274 235 234 121 82 99 176 148
349 345 341 337 333 330 330 329 327 323 320 318 318 320 321 322 312 277 280 262 245 241 229 215 237 245 183 200 240 200 220 232 232 248 258 266 273 275 255 167 132 71 52 113 139
349 345 340 336 331 327 323 319 315 314 314 316 317 318 322 330 301 255 20 270 250 227 221 224 226 251 209 219 202 242 233 240 244 238 260 267 279 289 307 254 179 164 180 177 154
348 344 340 335 332 329 324 321 318 314 314 313 312 313 319 334 285 84 63 2 21 202 202 227 217 222 222 220 212 246 245 247 259 270 273 268 300 298 310 241 204 176 168 211 161
350 346 342 341 340 337 332 325 318 313 312 314 312 313 330 259 244 262 281 290 334 174 202 212 211 212 215 223 241 228 239 243 239 250 263 271 269 273 278 276 228 169 173 211 202
340 336 331 328 327 325 323 320 319 317 313 311 305 295 264 263 264 284 303 332 215 192 214 210 223 213 256 229 246 271 244 239 240 242 240 252 264 256 264 267 252 247 200 225 175
339 337 334 327 322 318 315 314 314 319 317 308 301 270 258 247 270 288 298 305 245 205 221 218 231 256 222 269 245 251 256 267 254 240 247 232 251 242 251 271 217 249 231 189 195
340 340 338 331 329 330 332 327 325 319 318 299 296 244 258 269 276 274 280 295 286 272 241 255 235 236 248 273 291 285 264 246 248 244 245 212 248 242 241 245 233 227 238 195 211
345 347 343 340 339 340 336 333 341 342 329 162 156 202 265 308 254 318 257 254 276 277 271 248 278 264 258 235 264 249 243 238 247 230 230 219 243 229 213 222 233 227 219 216 215
349 348 345 343 340 340 334 338 347 69 100 135 226 190 267 303 306 309 300 300 238 247 281 272 258 262 255 224 220 227 234 244 250 233 227 240 258 244 201 212 221 218 213 210 224
350 350 347 344 343 340 336 340 2 329 326 298 282 243 273 275 287 293 293 297 291 274 233 224 226 226 234 237 259 269 248 252 243 248 254 232 243 245 212 214 224 212 212 212 222
351 352 347 345 347 351 13 0 357 357 318 315 280 250 248 262 277 299 341 247 241 256 255 250 249 231 242 255 260 260 263 271 275 266 233 244 251 250 218 212 222 213 208 208 217
349 349 344 340 338 338 328 348 349 14 292 291 325 342 322 325 313 314 341 324 291 246 253 253 251 258 234 234 244 253 243 252 259 275 281 273 263 250 230 217 210 223 202 208 209
346 346 341 339 342 327 329 339 338 15 313 350 357 14 342 341 6 298 286 277 279 220 233 252 232 260 278 264 244 253 259 263 255 245 255 257 260 264 228 223 211 209 197 211 207
345 340 334 338 300 296 335 328 327 12 2 342 357 348 319 348 320 13 332 291 283 308 55 277 224 234 249 264 255 268 267 254 262 265 261 256 248 265 240 213 206 197 211 197 209
344 335 331 330 312 303 327 319 303 30 325 328 347 335 329 2 5 343 14 37 344 286 200 256 283 289 242 258 266 281 301 274 274 266 257 247 232 247 252 211 199 196 211 211 200
341 333 317 311 263 325 319 319 342 62 331 333 331 342 322 2 346 359 32 27 312 341 287 293 263 254 259 252 239 241 221 270 254 236 239 238 244 227 235 250 195 199 208 205 198
337 330 317 296 320 325 318 316 353 357 326 329 332 335 337 5 345 337 345 28 269 214 279 271 306 46 346 245 229 241 214 188 239 225 241 239 233 217 232 249 252 185 201 190 196
335 328 304 310 329 328 337 35 344 327 323 324 330 325 318 335 335 325 326 221 237 213 4 305 276 289 281 275 187 274 252 223 218 256 302 246 244 266 232 242 251 215 202 199 189
333 306 276 314 323 313 35 221 319 311 309 311 331 321 323 334 332 338 314 281 345 28 340 293 303 274 356 15 302 231 266 229 161 223 231 236 266 228 256 230 234 237 200 187 172
325 291 34 350 334 325 180 330 308 306 331 349 328 310 308 328 320 310 273 302 318 352 326 326 278 292 336 200 236 315 232 240 312 174 218 243 236 244 260 283 233 237 226 180 123
324 308 4 5 21 345 360 314 312 324 4 346 303 3 320 319 300 296 274 305 327 9 335 333 262 272 264 273 281 273 267 263 233 255 219 156 250 296 323 326 289 232 246 130 121
310 267 22 18 30 350 317 320 314 332 359 347 330 320 304 322 326 313 291 319 312 348 332 308 298 314 307 162 117 258 264 239 235 267 227 208 253 197 333 329 295 116 119 122 117
291 317 360 342 24 353 319 304 322 345 331 342 305 318 330 314 301 285 290 318 335 319 308 321 222 223 241 266 291 268 269 252 197 219 241 227 290 312 317 325 123 115 122 124 120
324 4 40 318 327 311 300 291 339 335 335 353 308 321 314 299 305 259 308 306 314 310 314 258 262 260 261 272 281 280 259 275 221 222 224 206 235 269 276 292 159 120 119 117 116
354 352 331 303 299 306 317 354 328 325 334 337 321 316 312 298 283 295 304 301 275 307 332 355 285 314 293 280 271 298 254 250 221 189 236 141 344 230 354 217 218 134 118 113 112
346 303 246 278 310 326 328 330 308 331 323 328 328 318 310 299 303 288 277 270 248 230 238 257 288 317 271 325 310 279 242 226 230 252 213 156 176 255 62 36 291 140 107 106 104